Location: Catacaguana
(10.4120°N, 66.7591°W)
Time: 22:17:24
(UTC+00:00)

Cosmos 2278 - Pass Details

Date: 11 October 2022
Orbit: 840 x 851 km, 71.1° (Epoch: 08 December)

Event Time Altitude Azimuth Distance (km) Brightness Sun altitude
Exits shadow 09:23:54 13° 243° (WSW) 2,231 5.4 -13.5°
Drops below altitude 10° 09:25:30 10° 226° (SW) 2,457 5.7 -13.1°
Sets 09:29:11 0° 202° (SSW) 3,394 6.7 -12.2°
